EST,Max TemperatureF,Mean TemperatureF,Min TemperatureF,Max Dew PointF,MeanDew PointF,Min DewpointF,Max Humidity, Mean Humidity, Min Humidity, Max Sea Level PressureIn, Mean Sea Level PressureIn, Min Sea Level PressureIn, Max VisibilityMiles, Mean VisibilityMiles, Min VisibilityMiles, Max Wind SpeedMPH, Mean Wind SpeedMPH, Max Gust SpeedMPH,PrecipitationIn, CloudCover, Events, WindDirDegrees
2012-2-1,48,45,42,43,40,37,93,83,69,30.06,30.01,29.95,10,10,10,21,14,34,0.02,6,Rain,247
2012-2-2,39,34,28,39,30,23,100,91,78,30.38,30.11,29.96,10,6,0,17,6,25,0.00,6,Fog,310
2012-2-3,39,32,26,26,25,23,93,76,58,30.51,30.41,30.30,10,10,8,14,7,,0.00,4,,303
2012-2-4,32,30,27,30,29,24,100,96,85,30.34,30.14,30.01,10,3,0,6,1,,0.13,7,Fog-Snow,54
2012-2-5,37,32,26,29,25,18,100,82,54,30.23,30.11,30.00,10,7,0,10,2,,0.00,5,Fog,331
2012-2-6,42,33,24,24,21,19,88,64,41,30.21,30.14,30.08,10,10,10,14,8,20,0.00,0,,250
2012-2-7,36,31,26,26,24,21,93,74,62,30.24,30.15,30.06,10,10,8,16,10,23,0.00,4,,310
2012-2-8,30,26,23,29,26,20,100,93,81,30.24,30.11,30.02,10,3,0,17,5,21,0.07,7,Fog-Snow,213
2012-2-9,30,24,18,20,15,13,92,72,49,30.27,30.19,30.10,10,10,10,17,12,18,0.00,2,,267
2012-2-10,28,26,24,27,22,16,100,84,69,30.18,29.96,29.79,10,6,1,13,8,20,0.02,8,Snow,235
2012-2-11,26,18,10,25,15,6,100,89,79,30.01,29.77,29.66,10,2,0,26,12,38,0.04,8,Fog-Snow,277
2012-2-12,16,12,8,11,8,6,92,83,73,30.13,29.98,29.90,9,2,0,30,19,43,0.00,8,Fog-Snow,278
2012-2-13,30,22,15,16,13,10,86,69,45,30.17,30.10,29.99,10,10,9,21,15,29,0.00,5,,252
2012-2-14,37,32,26,32,28,16,100,90,50,30.06,29.95,29.86,10,4,0,13,5,,0.06,8,Fog-Snow,202
2012-2-15,36,31,28,31,28,25,100,91,64,30.28,30.14,29.98,10,6,1,16,10,23,0.01,7,Rain-Snow,260
2012-2-16,41,38,35,41,36,24,100,93,57,30.20,30.01,29.90,10,4,0,15,8,24,0.27,8,Fog-Rain,195
2012-2-17,39,34,28,39,28,20,100,81,52,30.11,30.04,29.95,10,7,1,20,13,25,0.05,6,Rain-Snow,287
2012-2-18,41,32,24,28,21,18,81,67,49,30.12,30.03,29.91,10,10,10,24,8,33,0.00,5,,256
2012-2-19,34,29,24,20,19,17,84,68,54,30.10,30.02,29.94,10,10,10,12,7,,0.00,4,,29
2012-2-20,36,28,19,17,16,14,88,66,43,30.32,30.21,30.05,10,10,10,9,7,,0.00,1,,332
2012-2-21,39,32,26,36,23,15,96,67,46,30.26,29.97,29.77,10,9,4,16,9,24,0.07,5,Rain-Snow,190
2012-2-22,48,40,33,36,31,25,96,73,42,29.80,29.66,29.43,10,10,4,22,12,31,0.01,5,Rain-Snow,236
2012-2-23,46,42,37,37,31,24,89,67,41,29.64,29.52,29.39,10,10,4,20,11,28,0.10,6,Rain,261
2012-2-24,51,38,26,45,33,22,100,88,57,29.65,29.49,29.34,10,7,0,31,11,45,0.10,8,Fog-Rain-Snow-Thunderstorm,226
2012-2-25,27,24,21,25,21,17,100,87,78,30.27,29.85,29.60,7,2,0,26,20,43,0.01,8,Fog-Snow-Thunderstorm,274
2012-2-26,35,28,21,20,17,13,93,69,45,30.46,30.34,30.18,10,8,2,18,12,28,0.00,4,Snow,240
2012-2-27,52,40,27,28,20,13,75,47,36,30.37,30.25,30.13,10,10,10,25,11,39,0.00,3,,245
2012-2-28,43,32,21,20,18,14,93,62,31,30.48,30.38,30.23,10,10,10,21,11,29,0.00,3,,299
2012-2-29,52,42,33,50,38,19,100,90,46,30.20,29.81,29.55,10,6,0,15,6,23,1.02,8,Fog-Rain-Thunderstorm,152